Live-Position
3D-Globus wird geladen...
Über Starlink 5185
Group: 3 satellites
Beschreibung wird geladen...
Nächste Überflüge
Passes for default location (London). Set your location on the main map for personalized predictions.
Höhenverlauf
Loading altitude history...
No altitude history available
Zweizeiliger Elementsatz
1 54100U 22136BB 26124.30156992 -.00000177 00000-0 69560-5 0 9991
2 54100 53.2173 84.1781 0001492 84.7519 275.3644 15.08838301195386
Epoch: 4. Mai 2026 •
Age: 24 hours
Aktueller Status
Höhe 548.1 km
Geschwindigkeit 7.59 km/s
Subsatellitenpunkt -26.51°S,
90.78°E
Startdatum 20. Okt. 2022
Alter 3.5 years
Typ internet
Startgruppe
Falcon 9 •
Group 4-36 •
47 satellites
Starlink 5195
54051
Starlink 5189 54052
Starlink 5176 54053
Starlink 5163 54054
Starlink 5158 54055
Starlink 5226 54056
Starlink 5167 54058
Starlink 5173 54059
Starlink 5169 54060
Starlink 5209 54061
Starlink 5170 54062
Starlink 5172 54064
Starlink 5187 54065
Starlink 5151 54066
Starlink 5174 54067
Starlink 5222 54068
Starlink 5181 54070
Starlink 5168 54071
Starlink 5146 54073
Starlink 5192 54074
...and 26 more
Technische Details
Klassifizierung Payload
Masse 305.00 kg
Trockenmasse 290.00 kg
Gesamtmasse 305.00 kg
Länge 0.20 m
Durchmesser 2.80 m
Spannweite 9.00 m
Form Box + pan
Hersteller SPXS
Bus-Typ Starlink
Phasenstatus In Orbit
Besitzer/Staat SPXS/US
Most Searched
Loading...